• In Deutschland
  • Länderverzeichnis
  • Für 7 Tage
  • Wassertemperatur
  • Satellitenkarten
  • Wetterkarte
  • Widgets
  • user-avatar
    Anmelden

    Stündliche Wetter Klagenfurt

    Heute, 24 Juli, Montag

    Zeit Temperatur Niederschläge Wind Luftdruck Luftfeuchtigkeit
    00:00 +18°C° 0,7 mm 1 m/S 689 mmHg 93%
    01:00 +16°C° 0 mm 1 m/S 689 mmHg 94%
    02:00 +16°C° 1,2 mm 1 m/S 688 mmHg 95%
    03:00 +16°C° 1,2 mm 1 m/S 688 mmHg 96%
    04:00 +16°C° 1,2 mm 1 m/S 687 mmHg 97%
    05:00 +16°C° 1,8 mm 1 m/S 687 mmHg 96%
    06:00 +18°C° 1,8 mm 1 m/S 687 mmHg 96%
    07:00 +18°C° 1,8 mm 1 m/S 687 mmHg 96%
    08:00 +19°C° 1,4 mm 1 m/S 687 mmHg 93%
    09:00 +20°C° 1,4 mm 1 m/S 686 mmHg 91%
    10:00 +21°C° 1,4 mm 1 m/S 686 mmHg 88%
    11:00 +22°C° 1,8 mm 1 m/S 686 mmHg 85%
    12:00 +22°C° 1,8 mm 1 m/S 686 mmHg 82%
    13:00 +20°C° 0 mm 2 m/S 685 mmHg 87%
    14:00 +20°C° 2,6 mm 1 m/S 684 mmHg 88%
    15:00 +20°C° 2,6 mm 1 m/S 684 mmHg 89%
    16:00 +20°C° 2,6 mm 1 m/S 684 mmHg 90%
    17:00 +19°C° 2,5 mm 1 m/S 684 mmHg 91%
    18:00 +18°C° 2,5 mm 1 m/S 684 mmHg 93%
    19:00 +16°C° 2,5 mm 1 m/S 684 mmHg 95%
    20:00 +15°C° 1,7 mm 1 m/S 683 mmHg 95%
    21:00 +15°C° 1,7 mm 1 m/S 683 mmHg 95%
    22:00 +14°C° 1,7 mm 1 m/S 683 mmHg 95%
    23:00 +13°C° 0 mm 1 m/S 683 mmHg 95%

    Morgen, 25 Juli, Dienstag

    Zeit Temperatur Niederschläge Wind Luftdruck Luftfeuchtigkeit
    00:00 +12°C° 0 mm 1 m/S 683 mmHg 95%
    01:00 +12°C° 0 mm 1 m/S 684 mmHg 94%
    02:00 +11°C° 0 mm 1 m/S 683 mmHg 94%
    03:00 +11°C° 0 mm 1 m/S 683 mmHg 94%
    04:00 +10°C° 0 mm 1 m/S 683 mmHg 94%
    05:00 +11°C° 0 mm 1 m/S 683 mmHg 91%
    06:00 +12°C° 0 mm 1 m/S 683 mmHg 89%
    07:00 +13°C° 0 mm 1 m/S 684 mmHg 86%
    08:00 +16°C° 0 mm 1 m/S 684 mmHg 73%
    09:00 +20°C° 0 mm 1 m/S 685 mmHg 59%
    10:00 +22°C° 0 mm 1 m/S 685 mmHg 46%
    11:00 +23°C° 0,1 mm 1 m/S 685 mmHg 44%
    12:00 +24°C° 0,1 mm 1 m/S 685 mmHg 42%
    13:00 +25°C° 0,1 mm 1 m/S 685 mmHg 41%
    14:00 +23°C° 0,6 mm 1 m/S 685 mmHg 49%
    15:00 +22°C° 0,6 mm 1 m/S 684 mmHg 57%
    16:00 +21°C° 0,6 mm 1 m/S 684 mmHg 65%
    17:00 +19°C° 1,5 mm 1 m/S 684 mmHg 73%
    18:00 +16°C° 1,5 mm 1 m/S 684 mmHg 81%
    19:00 +14°C° 1,5 mm 1 m/S 683 mmHg 90%
    20:00 +13°C° 1 mm 1 m/S 684 mmHg 92%
    21:00 +12°C° 1 mm 1 m/S 684 mmHg 94%
    22:00 +11°C° 1 mm 1 m/S 684 mmHg 96%
    23:00 +11°C° 0,6 mm 1 m/S 684 mmHg 96%

    übermorgen, 26 Juli, Mittwoch

    Zeit Temperatur Niederschläge Wind Luftdruck Luftfeuchtigkeit
    00:00 +11°C° 0,6 mm 1 m/S 684 mmHg 96%
    01:00 +11°C° 0,6 mm 1 m/S 684 mmHg 96%
    02:00 +10°C° 0,4 mm 1 m/S 683 mmHg 95%
    03:00 +10°C° 0,4 mm 1 m/S 683 mmHg 95%
    04:00 +10°C° 0,4 mm 1 m/S 683 mmHg 95%
    05:00 +11°C° 0 mm 1 m/S 683 mmHg 93%
    06:00 +12°C° 0 mm 1 m/S 684 mmHg 91%
    07:00 +13°C° 0 mm 1 m/S 684 mmHg 89%
    08:00 +15°C° 0 mm 1 m/S 684 mmHg 78%
    09:00 +18°C° 0 mm 1 m/S 685 mmHg 66%
    10:00 +21°C° 0 mm 1 m/S 685 mmHg 55%
    11:00 +21°C° 0,2 mm 1 m/S 685 mmHg 56%
    12:00 +21°C° 0,2 mm 1 m/S 685 mmHg 57%
    13:00 +22°C° 0,2 mm 1 m/S 685 mmHg 58%
    14:00 +21°C° 0,8 mm 1 m/S 685 mmHg 61%
    15:00 +21°C° 0,8 mm 1 m/S 685 mmHg 65%
    16:00 +20°C° 0,8 mm 1 m/S 685 mmHg 69%
    17:00 +19°C° 0,3 mm 1 m/S 685 mmHg 72%
    18:00 +18°C° 0,3 mm 1 m/S 685 mmHg 76%
    19:00 +15°C° 0,3 mm 1 m/S 686 mmHg 79%
    20:00 +14°C° 0 mm 1 m/S 686 mmHg 81%
    21:00 +13°C° 0 mm 1 m/S 686 mmHg 82%
    22:00 +11°C° 0 mm 1 m/S 686 mmHg 84%
    23:00 +11°C° 0 mm 1 m/S 686 mmHg 84%

    27 Juli, Donnerstag

    Zeit Temperatur Niederschläge Wind Luftdruck Luftfeuchtigkeit
    00:00 +11°C° 0 mm 1 m/S 686 mmHg 84%
    01:00 +10°C° 0 mm 1 m/S 686 mmHg 84%
    02:00 +10°C° 0 mm 1 m/S 686 mmHg 83%
    03:00 +10°C° 0 mm 1 m/S 686 mmHg 83%
    04:00 +10°C° 0 mm 1 m/S 686 mmHg 83%
    05:00 +11°C° 0 mm 1 m/S 686 mmHg 79%
    06:00 +13°C° 0 mm 1 m/S 687 mmHg 76%
    07:00 +14°C° 0 mm 1 m/S 687 mmHg 72%
    08:00 +16°C° 0 mm 0 m/S 688 mmHg 63%
    09:00 +19°C° 0 mm 0 m/S 688 mmHg 54%
    10:00 +22°C° 0 mm 0 m/S 689 mmHg 45%
    11:00 +24°C° 0 mm 1 m/S 689 mmHg 42%
    12:00 +25°C° 0 mm 1 m/S 689 mmHg 40%
    13:00 +26°C° 0 mm 1 m/S 689 mmHg 37%
    14:00 +25°C° 0 mm 1 m/S 688 mmHg 41%
    15:00 +24°C° 0 mm 1 m/S 688 mmHg 45%
    16:00 +24°C° 0 mm 2 m/S 688 mmHg 49%
    17:00 +22°C° 0,1 mm 1 m/S 688 mmHg 58%
    18:00 +20°C° 0,1 mm 1 m/S 688 mmHg 67%
    19:00 +18°C° 0,1 mm 1 m/S 687 mmHg 76%
    20:00 +16°C° 0 mm 1 m/S 687 mmHg 78%
    21:00 +15°C° 0 mm 1 m/S 688 mmHg 80%
    22:00 +14°C° 0 mm 1 m/S 688 mmHg 81%
    23:00 +14°C° 0 mm 1 m/S 688 mmHg 82%

    28 Juli, Freitag

    Zeit Temperatur Niederschläge Wind Luftdruck Luftfeuchtigkeit
    00:00 +13°C° 0 mm 1 m/S 688 mmHg 83%
    01:00 +13°C° 0 mm 1 m/S 688 mmHg 84%
    02:00 +12°C° 0 mm 1 m/S 688 mmHg 84%
    03:00 +12°C° 0 mm 1 m/S 687 mmHg 84%
    04:00 +12°C° 0 mm 1 m/S 687 mmHg 84%
    05:00 +13°C° 0 mm 0 m/S 688 mmHg 79%
    06:00 +14°C° 0 mm 0 m/S 688 mmHg 74%
    07:00 +16°C° 0 mm 0 m/S 689 mmHg 70%
    08:00 +19°C° 0 mm 0 m/S 689 mmHg 62%
    09:00 +21°C° 0 mm 0 m/S 690 mmHg 55%
    10:00 +24°C° 0 mm 0 m/S 691 mmHg 48%
    11:00 +26°C° 0,2 mm 1 m/S 691 mmHg 49%
    12:00 +26°C° 0,2 mm 1 m/S 691 mmHg 51%
    13:00 +26°C° 0,2 mm 1 m/S 690 mmHg 52%
    14:00 +25°C° 0,3 mm 1 m/S 690 mmHg 54%
    15:00 +25°C° 0,3 mm 1 m/S 690 mmHg 56%
    16:00 +25°C° 0,3 mm 1 m/S 690 mmHg 58%
    17:00 +23°C° 0,2 mm 1 m/S 690 mmHg 65%
    18:00 +22°C° 0,2 mm 1 m/S 690 mmHg 72%
    19:00 +20°C° 0,2 mm 1 m/S 690 mmHg 79%
    20:00 +19°C° 0 mm 1 m/S 691 mmHg 82%
    21:00 +18°C° 0 mm 1 m/S 691 mmHg 85%
    22:00 +16°C° 0 mm 1 m/S 691 mmHg 89%
    23:00 +15°C° 0 mm 1 m/S 692 mmHg 89%

    29 Juli, Samstag

    Zeit Temperatur Niederschläge Wind Luftdruck Luftfeuchtigkeit
    00:00 +15°C° 0 mm 1 m/S 692 mmHg 90%
    01:00 +15°C° 0 mm 1 m/S 692 mmHg 91%
    02:00 +15°C° 0 mm 1 m/S 692 mmHg 91%
    03:00 +14°C° 0 mm 1 m/S 692 mmHg 91%
    04:00 +14°C° 0 mm 1 m/S 692 mmHg 91%
    05:00 +15°C° 0 mm 1 m/S 692 mmHg 88%
    06:00 +16°C° 0 mm 1 m/S 693 mmHg 85%
    07:00 +18°C° 0 mm 1 m/S 693 mmHg 83%
    08:00 +20°C° 0 mm 1 m/S 693 mmHg 75%
    09:00 +22°C° 0 mm 1 m/S 694 mmHg 67%
    10:00 +23°C° 0 mm 2 m/S 694 mmHg 58%
    11:00 +24°C° 0 mm 1 m/S 694 mmHg 57%
    12:00 +25°C° 0 mm 1 m/S 694 mmHg 56%
    13:00 +26°C° 0 mm 1 m/S 694 mmHg 54%
    14:00 +26°C° 0 mm 1 m/S 693 mmHg 55%
    15:00 +26°C° 0 mm 1 m/S 693 mmHg 56%
    16:00 +26°C° 0 mm 1 m/S 693 mmHg 56%
    17:00 +24°C° 0 mm 1 m/S 693 mmHg 63%
    18:00 +21°C° 0 mm 0 m/S 693 mmHg 70%
    19:00 +20°C° 0 mm 0 m/S 692 mmHg 77%
    20:00 +18°C° 0,2 mm 0 m/S 692 mmHg 81%
    21:00 +17°C° 0,2 mm 0 m/S 692 mmHg 84%
    22:00 +18°C° 0,2 mm 1 m/S 692 mmHg 87%
    23:00 +18°C° 0,4 mm 1 m/S 692 mmHg 88%
    Mehr zeigen